North Bend, OR

3:20 PM PDT on August 31, 2016 (GMT -0700)
North Bend Municipal

Weather History for KOTH - October, 2014

Change the Weather History Date:

Friday, October 17, 2014

  Actual Average Record
Temperature  
Mean Temperature 61 °F 53 °F  
Max Temperature 64 °F 61 °F 88 °F (1936)
Min Temperature 57 °F 46 °F 34 °F (1971)
Degree Days  
Heating Degree Days 4 12  
Month to date heating degree days 81 182  
Since 1 July heating degree days 449 790  
Cooling Degree Days 0 0  
Month to date cooling degree days 5 0  
Year to date cooling degree days 27 2  
Growing Degree Days 10 (Base 50)    
Moisture  
Dew Point 59 °F    
Average Humidity 93    
Maximum Humidity 100    
Minimum Humidity 72    
Precipitation  
Precipitation 0.12 in 0.16 in 1.76 in (1920)
Month to date precipitation 1.93 1.93  
Year to date precipitation 26.21 40.75  
Sea Level Pressure  
Sea Level Pressure 29.79 in    
Wind  
Wind Speed 5 mph (SSE)    
Max Wind Speed 9 mph    
Max Gust Speed 16 mph    
Visibility 10 miles    
Events      
T = Trace of Precipitation, MM = Missing Value Source: NWS Daily Summary

Daily Weather History Graph

Daily Weather History Graph

Search for Another Location

Airport or City:

Trip Planner

Search our weather history database for the weather conditions in past years. The results will help you decide how hot, cold, wet, or windy it might be!

Date:

Astronomy

Oct. 17, 2014 Rise Set
Actual Time 7:33 AM PDT 6:30 PM PDT
Civil Twilight 7:04 AM PDT 6:59 PM PDT
Nautical Twilight 6:31 AM PDT 7:32 PM PDT
Astronomical Twilight 5:58 AM PDT 8:05 PM PDT
Moon 1:33 AM PDT (10/17) 3:29 PM PDT (10/17)
Length of Visible Light 11h 54m
Length of Day
10h 56m
Waning Crescent, 32% of the Moon is Illuminated
Oct 17
Waning Crescent
Oct 23
New
Oct 30
First Quarter
Nov 6
Full
Nov 14
Last Quarter

Hourly Weather History & Observations

Time (PDT) Temp. Dew Point Humidity Pressure Visibility Wind Dir Wind Speed Gust Speed Precip Events Conditions
12:15 AM 57.2 °F 57.2 °F 100% 29.80 in 10.0 mi SSE 6.9 mph - N/A   Overcast
12:35 AM 57.2 °F 57.2 °F 100% 29.80 in 10.0 mi ESE 5.8 mph - N/A   Overcast
12:55 AM 57.2 °F 57.2 °F 100% 29.79 in 10.0 mi SE 5.8 mph - N/A   Overcast
1:15 AM 57.2 °F 57.2 °F 100% 29.79 in 10.0 mi SSE 5.8 mph - N/A   Mostly Cloudy
1:35 AM 57.2 °F 55.4 °F 94% 29.79 in 10.0 mi South 5.8 mph - N/A   Mostly Cloudy
1:55 AM 57.2 °F 55.4 °F 94% 29.78 in 10.0 mi South 6.9 mph - N/A   Mostly Cloudy
2:15 AM 57.2 °F 57.2 °F 100% 29.78 in 10.0 mi South 4.6 mph - N/A   Mostly Cloudy
2:35 AM 57.2 °F 55.4 °F 94% 29.77 in 10.0 mi South 3.5 mph - N/A   Overcast
2:55 AM 57.2 °F 55.4 °F 94% 29.77 in 10.0 mi SSE 3.5 mph - N/A   Scattered Clouds
3:15 AM 57.2 °F 55.4 °F 94% 29.77 in 10.0 mi South 4.6 mph - N/A   Scattered Clouds
3:35 AM 57.2 °F 55.4 °F 94% 29.77 in 10.0 mi South 5.8 mph - N/A   Mostly Cloudy
3:55 AM 57.2 °F 55.4 °F 94% 29.76 in 10.0 mi SSE 3.5 mph - N/A   Overcast
4:15 AM 57.2 °F 55.4 °F 94% 29.76 in 10.0 mi SSE 4.6 mph - N/A   Overcast
4:35 AM 57.2 °F 55.4 °F 94% 29.75 in 10.0 mi SSE 4.6 mph - N/A   Overcast
4:55 AM 57.2 °F 55.4 °F 94% 29.75 in 10.0 mi SSE 5.8 mph - N/A   Overcast
5:15 AM 57.2 °F 55.4 °F 94% 29.75 in 10.0 mi South 4.6 mph - N/A   Overcast
5:35 AM 57.2 °F 55.4 °F 94% 29.74 in 10.0 mi SSE 4.6 mph - N/A   Overcast
5:55 AM 57.2 °F 55.4 °F 94% 29.73 in 10.0 mi South 5.8 mph - N/A   Mostly Cloudy
6:15 AM 57.2 °F 53.6 °F 88% 29.72 in 10.0 mi SSE 3.5 mph - N/A   Mostly Cloudy
6:35 AM 59.0 °F 53.6 °F 82% 29.71 in 10.0 mi SSE 4.6 mph - N/A   Scattered Clouds
6:55 AM 59.0 °F 53.6 °F 82% 29.72 in 10.0 mi South 8.1 mph - N/A   Scattered Clouds
7:15 AM 57.2 °F 53.6 °F 88% 29.72 in 10.0 mi SSE 5.8 mph - N/A   Mostly Cloudy
7:35 AM 57.2 °F 53.6 °F 88% 29.73 in 10.0 mi SE 4.6 mph - N/A   Overcast
7:55 AM 59.0 °F 53.6 °F 82% 29.73 in 10.0 mi SE 3.5 mph - N/A   Overcast
8:15 AM 59.0 °F 53.6 °F 82% 29.73 in 10.0 mi SSE 4.6 mph - N/A   Overcast
8:35 AM 60.8 °F 53.6 °F 77% 29.73 in 10.0 mi SSE 5.8 mph - N/A   Overcast
8:55 AM 60.8 °F 53.6 °F 77% 29.73 in 10.0 mi SSE 4.6 mph - N/A   Overcast
9:15 AM 60.8 °F 53.6 °F 77% 29.74 in 10.0 mi South 6.9 mph - N/A   Overcast
9:35 AM 60.8 °F 53.6 °F 77% 29.74 in 10.0 mi South 6.9 mph - N/A   Overcast
9:55 AM 60.8 °F 53.6 °F 77% 29.75 in 10.0 mi South 5.8 mph - N/A   Overcast
10:15 AM 62.6 °F 53.6 °F 72% 29.75 in 10.0 mi SSE 4.6 mph - N/A   Overcast
10:35 AM 62.6 °F 53.6 °F 72% 29.76 in 10.0 mi SSE 3.5 mph - N/A   Overcast
10:55 AM 62.6 °F 53.6 °F 72% 29.76 in 10.0 mi SSE 3.5 mph - N/A   Overcast
11:15 AM 64.4 °F 55.4 °F 73% 29.77 in 10.0 mi South 6.9 mph - N/A   Overcast
11:35 AM 64.4 °F 59.0 °F 83% 29.77 in 10.0 mi South 15.0 mph 19.6 mph N/A   Overcast
11:55 AM 64.4 °F 59.0 °F 83% 29.78 in 10.0 mi SSE 9.2 mph 16.1 mph N/A   Overcast
12:15 PM 60.8 °F 60.8 °F 100% 29.78 in 5.0 mi SE 4.6 mph - 0.01 in   Overcast
12:35 PM 60.8 °F 60.8 °F 100% 29.78 in 10.0 mi SE 4.6 mph - 0.01 in   Overcast
12:55 PM 62.6 °F 62.6 °F 100% 29.78 in 9.0 mi SE 4.6 mph - 0.01 in   Overcast
1:15 PM 64.4 °F 62.6 °F 94% 29.78 in 10.0 mi SE 6.9 mph - 0.01 in   Overcast
1:35 PM 64.4 °F 60.8 °F 88% 29.78 in 10.0 mi SE 6.9 mph - 0.01 in   Overcast
1:55 PM 64.4 °F 62.6 °F 94% 29.78 in 9.0 mi SE 4.6 mph - 0.01 in   Overcast
2:15 PM 64.4 °F 62.6 °F 94% 29.78 in 10.0 mi South 6.9 mph - 0.01 in   Overcast
2:35 PM 62.6 °F 62.6 °F 100% 29.78 in 9.0 mi SSE 8.1 mph - 0.04 in   Overcast
2:55 PM 62.6 °F 62.6 °F 100% 29.79 in 8.0 mi South 4.6 mph - 0.08 in   Overcast
3:15 PM 62.6 °F 62.6 °F 100% 29.80 in 8.0 mi SE 5.8 mph - N/A   Overcast
3:35 PM 62.6 °F 62.6 °F 100% 29.80 in 10.0 mi SE 5.8 mph - 0.01 in   Overcast
3:55 PM 62.6 °F 62.6 °F 100% 29.80 in 9.0 mi SSE 5.8 mph - 0.01 in   Overcast
4:15 PM 62.6 °F 62.6 °F 100% 29.81 in 10.0 mi SSE 5.8 mph - N/A   Overcast
4:35 PM 62.6 °F 62.6 °F 100% 29.81 in 10.0 mi SE 4.6 mph - 0.01 in   Overcast
4:55 PM 62.6 °F 62.6 °F 100% 29.81 in 10.0 mi SE 3.5 mph - 0.01 in   Overcast
5:15 PM 62.6 °F 62.6 °F 100% 29.81 in 10.0 mi SE 3.5 mph - N/A   Overcast
5:35 PM 62.6 °F 62.6 °F 100% 29.81 in 10.0 mi SE 5.8 mph - N/A   Overcast
5:55 PM 62.6 °F 62.6 °F 100% 29.82 in 10.0 mi South 4.6 mph - N/A   Overcast
6:15 PM 62.6 °F 62.6 °F 100% 29.82 in 10.0 mi SE 4.6 mph - N/A   Overcast
6:35 PM 62.6 °F 62.6 °F 100% 29.83 in 10.0 mi South 3.5 mph - N/A   Overcast
6:55 PM 62.6 °F 62.6 °F 100% 29.84 in 10.0 mi South 3.5 mph - N/A   Overcast
7:15 PM 62.6 °F 62.6 °F 100% 29.84 in 8.0 mi SE 3.5 mph - N/A   Overcast
7:35 PM 62.6 °F 62.6 °F 100% 29.85 in 10.0 mi SE 4.6 mph - N/A   Overcast
7:55 PM 62.6 °F 62.6 °F 100% 29.86 in 10.0 mi SE 3.5 mph - N/A   Overcast
8:15 PM 62.6 °F 62.6 °F 100% 29.86 in 10.0 mi Calm Calm - N/A   Overcast
8:35 PM 62.6 °F 62.6 °F 100% 29.87 in 10.0 mi Calm Calm - N/A   Overcast
8:55 PM 62.6 °F 62.6 °F 100% 29.87 in 10.0 mi Calm Calm - N/A   Overcast
9:15 PM 62.6 °F 62.6 °F 100% 29.88 in 10.0 mi SE 4.6 mph - N/A   Overcast
9:35 PM 62.6 °F 60.8 °F 94% 29.89 in 10.0 mi SE 4.6 mph - N/A   Overcast
9:55 PM 62.6 °F 60.8 °F 94% 29.89 in 10.0 mi SE 3.5 mph - N/A   Overcast
10:15 PM 62.6 °F 60.8 °F 94% 29.89 in 10.0 mi SSE 3.5 mph - N/A   Overcast
10:35 PM 62.6 °F 60.8 °F 94% 29.90 in 10.0 mi South 4.6 mph - N/A   Overcast
10:55 PM 62.6 °F 60.8 °F 94% 29.91 in 10.0 mi Calm Calm - N/A   Overcast
11:15 PM 62.6 °F 60.8 °F 94% 29.91 in 10.0 mi Calm Calm - N/A   Overcast
11:35 PM 62.6 °F 62.6 °F 100% 29.91 in 10.0 mi Calm Calm - N/A   Overcast
11:55 PM 60.8 °F 60.8 °F 100% 29.91 in 10.0 mi ESE 3.5 mph - N/A   Overcast